Weather History for Glenwood, MN

Change the Weather History Date:

Monday, November 26, 2012

  Actual Average Record
Temperature  
Mean Temperature 10 °F -  
Max Temperature 17 °F 33 °F 53 °F (1960)
Min Temperature 3 °F 17 °F -14 °F (1996)
Degree Days  
Heating Degree Days 55    
Moisture  
Dew Point 6 °F    
Average Humidity 79    
Maximum Humidity 92    
Minimum Humidity 63    
Precipitation  
Precipitation 0.00 in - - ()
Sea Level Pressure  
Sea Level Pressure 30.32 in    
Wind  
Wind Speed 9 mph (West)    
Max Wind Speed 16 mph    
Max Gust Speed 21 mph    
Visibility 10 miles    
Events Snow    
Averages and records for this station are not official NWS values.
T = Trace of Precipitation, MM = Missing Value Source: NWS Daily Summary

Daily Weather History Graph

Daily Weather History Graph

Search for Another Location

Airport:

Trip Planner

Search our weather history database for the weather conditions in past years. The results will help you decide how hot, cold, wet, or windy it might be!

Date:

Astronomy

Nov. 26, 2012 Rise Set
Actual Time 7:36 AM CST 4:41 PM CST
Civil Twilight 7:02 AM CST 5:14 PM CST
Nautical Twilight 6:25 AM CST 5:51 PM CST
Astronomical Twilight 5:50 AM CST 6:26 PM CST
Moon 3:36 PM CST (11/26) 5:43 AM CST (11/26)
Length of Visible Light 10h 11m
Length of Day
9h 05m
Waxing Gibbous, 97% of the Moon is Illuminated
Nov 26
Waxing Gibbous
Nov 28
Full
Dec 6
Last Quarter
Dec 13
New
Dec 19
First Quarter

Hourly Weather History & Observations

Time (CST) Temp. Windchill Dew Point Humidity Pressure Visibility Wind Dir Wind Speed Gust Speed Precip Events Conditions
12:13 AM 10.4 °F -6.6 °F 6.8 °F 85% 30.22 in 10.0 mi NW 16.1 mph - N/A   Scattered Clouds
12:33 AM 10.4 °F -5.4 °F 5.0 °F 79% 30.22 in 10.0 mi NNW 13.8 mph - N/A   Clear
12:53 AM 10.4 °F -6.6 °F 3.2 °F 73% 30.23 in 10.0 mi NW 16.1 mph 20.7 mph N/A   Clear
1:13 AM 10.4 °F 0.8 °F 5.0 °F 79% 30.23 in 10.0 mi NW 5.8 mph - N/A   Clear
1:33 AM 10.4 °F -3.3 °F 5.0 °F 79% 30.24 in 10.0 mi NW 10.4 mph - N/A   Clear
1:53 AM 8.6 °F -3.7 °F 5.0 °F 85% 30.24 in 10.0 mi NW 8.1 mph - N/A   Clear
2:13 AM 8.6 °F -4.7 °F 3.2 °F 79% 30.25 in 10.0 mi NNW 9.2 mph - N/A   Clear
2:33 AM 8.6 °F -4.7 °F 3.2 °F 79% 30.26 in 10.0 mi NNW 9.2 mph - N/A   Clear
2:53 AM 8.6 °F -1.3 °F 3.2 °F 79% 30.27 in 10.0 mi NW 5.8 mph - N/A   Clear
3:13 AM 6.8 °F -6.9 °F 3.2 °F 85% 30.27 in 10.0 mi NNW 9.2 mph - N/A Snow Light Snow
3:33 AM 6.8 °F -3.5 °F 3.2 °F 85% 30.27 in 5.0 mi NW 5.8 mph - N/A Snow Light Snow
3:53 AM 6.8 °F -4.8 °F 3.2 °F 85% 30.27 in 7.0 mi NW 6.9 mph - N/A Snow Light Snow
4:13 AM 6.8 °F -3.5 °F 3.2 °F 85% 30.28 in 10.0 mi NW 5.8 mph - N/A Snow Light Snow
4:33 AM 6.8 °F -6.9 °F 3.2 °F 85% 30.29 in 10.0 mi NW 9.2 mph - N/A   Clear
4:53 AM 6.8 °F -6.9 °F 3.2 °F 85% 30.30 in 10.0 mi NNW 9.2 mph - N/A   Clear
5:13 AM 6.8 °F -5.9 °F 3.2 °F 85% 30.30 in 10.0 mi NW 8.1 mph - N/A   Clear
5:34 AM 6.8 °F -4.8 °F 1.4 °F 79% 30.30 in 10.0 mi NW 6.9 mph - N/A   Clear
5:53 AM 6.8 °F -4.8 °F 1.4 °F 79% 30.32 in 10.0 mi NW 6.9 mph - N/A   Clear
6:13 AM 5.0 °F -5.6 °F 1.4 °F 85% 30.32 in 10.0 mi NW 5.8 mph - N/A   Clear
6:34 AM 6.8 °F -4.8 °F 1.4 °F 79% 30.33 in 10.0 mi NNW 6.9 mph - N/A   Clear
6:53 AM 5.0 °F -6.9 °F 1.4 °F 85% 30.33 in 10.0 mi NNW 6.9 mph - N/A   Clear
7:13 AM 5.0 °F -6.9 °F 1.4 °F 85% 30.35 in 10.0 mi NW 6.9 mph - N/A   Clear
7:33 AM 3.2 °F -6.2 °F 1.4 °F 92% 30.36 in 10.0 mi WNW 4.6 mph - N/A   Clear
7:52 AM 3.2 °F -7.8 °F 1.4 °F 92% 30.37 in 10.0 mi West 5.8 mph - N/A Snow Light Snow
7:59 AM 5.0 °F -6.9 °F 1.4 °F 85% 30.37 in 10.0 mi WNW 6.9 mph - N/A Snow Light Snow
8:33 AM 6.8 °F -2.0 °F 1.4 °F 79% 30.38 in 10.0 mi WNW 4.6 mph - N/A   Clear
8:53 AM 6.8 °F -3.5 °F 3.2 °F 85% 30.38 in 10.0 mi WNW 5.8 mph - N/A   Clear
9:13 AM 8.6 °F -4.7 °F 3.2 °F 79% 30.38 in 10.0 mi NW 9.2 mph - N/A   Clear
9:26 AM 8.6 °F -6.3 °F 3.2 °F 79% 30.38 in 10.0 mi NW 11.5 mph - N/A   Clear
9:53 AM 10.4 °F -3.3 °F 5.0 °F 79% 30.39 in 10.0 mi NW 10.4 mph - N/A   Clear
10:13 AM 10.4 °F -4.1 °F 6.8 °F 85% 30.39 in 10.0 mi NW 11.5 mph - N/A   Clear
10:33 AM 12.2 °F -1.0 °F 6.8 °F 79% 30.40 in 10.0 mi NW 10.4 mph - N/A   Clear
10:39 AM 12.2 °F -1.0 °F 6.8 °F 79% 30.40 in 10.0 mi WNW 10.4 mph - N/A   Clear
11:13 AM 15.8 °F 6.1 °F 6.8 °F 68% 30.41 in 10.0 mi West 6.9 mph - N/A   Unknown
11:33 AM 15.8 °F 5.1 °F 6.8 °F 68% 30.41 in 10.0 mi West 8.1 mph - N/A   Clear
11:45 AM 15.8 °F 2.7 °F 6.8 °F 68% 30.40 in 10.0 mi WNW 11.5 mph - N/A   Clear
12:14 PM - - 30.2 °F N/A% 30.39 in 10.0 mi WNW 11.5 mph - N/A   Clear
12:33 PM 17.6 °F 6.4 °F 8.6 °F 68% - 10.0 mi West 9.2 mph - N/A   Clear
12:54 PM 17.6 °F 7.3 °F 6.8 °F 63% 30.37 in 10.0 mi WNW 8.1 mph - N/A   Clear
1:13 PM 17.6 °F 7.3 °F 8.6 °F 68% 30.37 in 10.0 mi WNW 8.1 mph - N/A   Unknown
1:14 PM 17.6 °F 7.3 °F 8.6 °F 68% 30.37 in 10.0 mi WNW 8.1 mph - N/A   Unknown
1:49 PM 17.6 °F 6.4 °F 8.6 °F 68% 30.36 in 10.0 mi WNW 9.2 mph - N/A   Clear
2:42 PM 17.6 °F 6.4 °F 8.6 °F 68% 30.36 in 10.0 mi West 9.2 mph - N/A   Clear
2:54 PM 17.6 °F 6.4 °F 8.6 °F 68% 30.36 in 10.0 mi West 9.2 mph - N/A   Clear
3:13 PM 17.6 °F 6.4 °F 8.6 °F 68% 30.35 in 10.0 mi West 9.2 mph - N/A   Clear
3:33 PM 17.6 °F 6.4 °F 8.6 °F 68% 30.36 in 10.0 mi West 9.2 mph - N/A   Clear
3:54 PM 17.6 °F 7.3 °F 8.6 °F 68% 30.35 in 10.0 mi West 8.1 mph - N/A   Clear
4:13 PM 17.6 °F 6.4 °F 8.6 °F 68% 30.35 in 10.0 mi West 9.2 mph - N/A   Clear
4:54 PM 14.0 °F 6.5 °F 6.8 °F 73% 30.34 in 10.0 mi SW 4.6 mph - N/A   Clear
5:13 PM 14.0 °F 6.5 °F 6.8 °F 73% 30.33 in 10.0 mi SSW 4.6 mph - N/A   Clear
5:33 PM 12.2 °F 1.7 °F 6.8 °F 79% 30.33 in 10.0 mi SSW 6.9 mph - N/A   Clear
5:54 PM 12.2 °F 1.7 °F 6.8 °F 79% 30.33 in 10.0 mi SSW 6.9 mph - N/A   Clear
6:13 PM 12.2 °F 1.7 °F 6.8 °F 79% 30.33 in 5.0 mi SSW 6.9 mph - N/A   Haze
6:33 PM 10.4 °F -1.5 °F 6.8 °F 85% 30.31 in 10.0 mi South 8.1 mph - N/A   Clear
6:54 PM 10.4 °F 2.2 °F 6.8 °F 85% 30.32 in 10.0 mi SW 4.6 mph - N/A   Clear
7:13 PM 12.2 °F 1.7 °F 6.8 °F 79% 30.30 in 10.0 mi SSW 6.9 mph - N/A   Clear
7:33 PM 14.0 °F 2.9 °F 8.6 °F 79% 30.30 in 10.0 mi SSW 8.1 mph - N/A   Clear
7:54 PM 12.2 °F -1.8 °F 8.6 °F 85% 30.29 in 10.0 mi SSW 11.5 mph - N/A   Clear
8:13 PM 12.2 °F -1.0 °F 6.8 °F 79% 30.29 in 10.0 mi SSW 10.4 mph - N/A   Clear
8:33 PM 12.2 °F 0.7 °F 8.6 °F 85% 30.29 in 10.0 mi SSW 8.1 mph - N/A   Clear
8:53 PM 12.2 °F -0.2 °F 8.6 °F 85% 30.28 in 10.0 mi SSW 9.2 mph - N/A   Clear
9:33 PM 12.2 °F 0.7 °F 8.6 °F 85% 30.27 in 10.0 mi SSW 8.1 mph - N/A   Clear
9:54 PM 14.0 °F 2.0 °F 8.6 °F 79% 30.27 in 10.0 mi SSW 9.2 mph - N/A   Clear
10:13 PM 12.2 °F 1.7 °F 8.6 °F 85% 30.26 in 10.0 mi SSW 6.9 mph - N/A   Clear
10:33 PM 12.2 °F 1.7 °F 8.6 °F 85% 30.26 in 10.0 mi SW 6.9 mph - N/A   Scattered Clouds
10:53 PM 12.2 °F 0.7 °F 8.6 °F 85% 30.25 in 10.0 mi SSW 8.1 mph - N/A   Scattered Clouds
11:13 PM 12.2 °F -0.2 °F 8.6 °F 85% 30.25 in 10.0 mi SSW 9.2 mph - N/A   Clear
11:34 PM 12.2 °F 0.7 °F 8.6 °F 85% 30.26 in 10.0 mi SW 8.1 mph - N/A   Clear
11:53 PM 12.2 °F 1.7 °F 8.6 °F 85% 30.25 in 10.0 mi SSW 6.9 mph - N/A   Clear